Wind_Speed
69 70 71 71 69 66 63 60 59 58 57 56 56 56 57 56 53 50 48 46 45 46 46 45 44 40 35 34 35 36 39 40 36 30 26 23 21 18 16 16 17 18 21 27 30 29 29 29 28 27 25 23 22 22 22 22 21 21 22 21 22 24 24 22 22 23 22 22 22 23 23 23 23 23 22 22 22 22 22 22 23 24 25 26 27 27
70 72 72 69 65 61 59 57 57 57 58 58 57 57 57 56 53 51 49 47 46 47 47 47 47 45 40 37 36 38 40 40 37 31 26 24 22 19 15 14 15 16 20 24 26 27 29 29 30 30 28 26 24 24 23 23 24 23 22 21 23 24 23 22 24 24 23 23 24 24 23 23 23 21 21 21 22 21 21 22 24 25 27 28 28 27
74 75 71 66 63 61 59 59 59 59 60 60 59 58 58 58 56 53 51 49 49 49 49 49 49 48 44 40 38 39 40 39 37 33 29 26 24 19 16 15 15 15 17 20 22 24 27 29 30 31 29 28 27 27 25 25 25 25 24 23 24 25 23 23 24 23 24 25 26 25 23 22 22 21 21 22 22 21 22 24 26 28 28 29 28 27
76 75 70 66 64 63 62 62 62 62 64 64 63 61 60 59 57 55 52 50 49 50 50 51 52 51 48 45 40 39 41 39 37 36 32 31 26 20 19 19 17 15 15 17 18 21 25 28 30 31 31 31 30 29 28 27 27 26 26 25 26 26 24 25 24 23 24 25 24 24 23 23 21 21 22 22 22 23 25 27 29 29 29 28 27 27
71 68 66 66 64 64 65 64 64 64 65 66 64 62 60 58 56 54 52 51 50 51 52 53 56 55 50 48 44 39 41 41 39 38 36 33 28 23 22 21 19 18 18 18 18 20 23 25 28 30 31 32 31 30 29 30 30 28 27 27 28 27 25 25 24 23 23 22 22 22 22 22 22 22 22 22 24 26 27 28 29 28 28 27 27 27
69 65 64 64 64 66 67 65 64 64 64 65 64 60 58 56 54 53 52 52 52 52 53 54 58 59 53 51 48 41 42 43 41 39 37 34 30 26 24 22 22 23 21 21 21 22 22 22 24 27 28 30 30 30 31 32 32 30 29 30 29 28 26 25 24 23 22 21 21 21 21 22 22 22 21 23 25 26 27 27 27 27 27 27 27 28
69 67 64 63 65 67 68 67 65 64 65 65 64 60 58 56 55 54 53 54 55 55 55 55 59 62 57 52 50 45 42 43 43 40 38 36 32 28 26 24 25 26 25 25 25 25 23 21 21 22 23 25 26 28 31 32 31 31 31 31 30 29 27 26 25 24 22 22 22 23 22 23 23 23 24 25 27 26 26 26 26 27 28 28 29 29
69 68 66 64 66 67 69 69 65 64 65 65 64 61 58 56 55 55 54 55 57 57 57 56 58 63 62 55 51 48 44 43 43 42 38 36 34 31 29 28 27 28 28 28 28 27 25 22 21 21 22 23 23 24 26 27 28 30 32 32 31 30 28 27 27 26 25 25 24 24 24 24 24 25 26 28 28 28 27 28 28 29 30 30 31 31
67 67 66 65 66 69 69 67 64 62 63 64 63 60 57 56 55 55 57 57 57 58 59 58 57 63 66 58 51 50 48 45 44 42 39 37 37 35 33 31 29 29 30 31 30 28 26 24 23 23 23 23 22 22 24 24 25 27 30 32 32 31 30 30 30 30 29 28 27 26 26 25 24 25 27 29 29 29 29 29 29 30 31 31 32 32
66 66 64 65 66 65 64 62 60 58 59 62 63 60 56 57 57 56 58 58 57 59 60 58 55 62 67 62 54 52 50 46 44 42 41 40 39 38 35 33 31 31 31 32 32 30 28 26 25 24 24 23 23 24 25 24 23 24 26 28 29 30 31 33 34 33 32 30 28 27 25 24 25 26 28 29 29 29 29 29 29 30 31 31 31 31
60 61 64 67 66 63 61 61 60 56 57 58 59 60 58 58 59 59 60 59 59 62 62 58 54 60 67 65 60 57 52 48 45 44 43 41 39 38 36 34 34 33 33 33 33 31 30 28 27 25 24 24 25 26 26 25 24 23 24 25 26 28 31 32 33 32 30 29 27 25 24 24 25 26 27 26 26 27 26 26 27 28 28 28 28 29
56 58 61 63 63 64 64 63 63 60 60 59 58 59 59 60 62 63 64 63 64 67 66 61 58 63 71 68 62 60 55 51 48 45 43 40 38 38 37 37 36 36 36 34 33 31 29 30 30 28 26 25 27 27 27 27 26 25 24 25 25 26 28 29 30 29 27 27 26 25 25 23 23 24 24 23 23 23 23 23 25 25 25 25 26 26
58 57 56 55 58 62 64 65 66 65 64 64 63 63 61 62 64 66 68 69 71 72 69 66 65 69 76 71 63 61 58 55 51 47 44 40 38 38 38 39 38 37 37 35 33 31 30 31 32 31 29 27 28 28 29 28 27 27 26 26 26 26 27 28 28 27 27 27 26 26 24 23 23 23 22 21 21 22 22 22 23 23 24 25 25 26
59 60 61 60 59 59 60 63 65 66 67 67 67 67 67 66 67 70 72 73 75 75 73 71 71 74 78 72 65 63 61 58 54 50 46 41 39 39 39 40 40 38 38 35 34 33 33 33 33 33 31 29 28 28 30 30 29 28 28 28 28 28 29 29 29 28 27 27 26 25 24 23 23 23 22 21 20 21 21 22 22 23 24 25 26 28
59 63 66 65 62 60 58 59 58 59 62 63 60 60 62 65 67 68 69 71 71 71 72 72 74 79 78 70 65 64 63 62 58 54 50 43 40 39 40 41 41 40 40 38 36 35 36 36 35 33 32 30 29 29 30 31 31 30 29 29 29 30 30 30 29 28 27 26 26 25 24 23 24 23 23 22 21 22 22 22 22 23 24 26 27 29
58 59 58 58 60 61 60 58 55 55 57 59 58 56 54 53 55 59 61 62 62 63 68 72 76 80 76 70 67 65 66 66 64 60 55 49 45 42 40 40 40 41 41 41 40 39 38 38 38 35 33 31 30 30 31 32 33 32 31 30 30 30 30 30 29 29 27 27 26 25 25 25 25 25 24 23 23 23 23 23 23 23 25 27 29 31
54 53 50 52 56 59 63 62 60 58 57 59 63 62 55 49 51 55 55 56 56 59 66 72 76 78 78 75 71 68 68 68 67 64 60 55 51 47 44 41 41 42 42 43 42 41 40 40 40 38 35 33 33 32 33 33 33 33 32 32 31 31 31 31 31 30 29 28 27 26 26 26 27 26 26 25 25 25 25 24 24 25 27 28 30 32
49 49 47 48 47 50 57 63 67 66 62 61 61 60 57 56 58 58 57 58 59 59 61 65 68 72 76 79 74 69 68 67 68 67 63 59 55 51 47 44 42 43 44 45 45 43 42 41 41 40 38 37 36 35 35 35 34 33 33 33 33 33 33 32 32 32 31 30 29 29 28 29 29 29 29 28 27 27 27 26 26 27 28 30 32 33
49 51 51 50 50 50 52 57 63 66 67 67 62 57 59 63 62 61 63 65 64 63 61 60 62 64 68 74 75 71 68 67 68 68 67 65 60 55 51 47 44 43 43 45 46 46 44 43 43 42 41 40 39 38 38 37 36 35 34 34 34 35 35 34 34 34 34 33 32 32 32 32 32 31 31 30 29 29 29 28 29 29 30 31 33 34
47 49 50 51 53 56 58 60 60 59 61 65 64 64 66 65 62 62 64 65 65 65 64 61 62 63 64 67 70 70 69 70 70 69 69 68 65 61 57 52 48 46 46 46 46 46 46 45 44 43 43 42 41 41 40 38 37 37 36 36 35 36 36 36 36 36 36 36 35 35 35 34 34 34 33 33 32 31 30 30 31 31 32 33 34 35
51 48 47 47 50 55 60 63 61 58 58 60 62 64 65 65 65 65 64 63 63 64 64 63 64 66 63 61 64 65 66 67 69 70 71 70 68 64 60 55 50 48 48 49 49 48 47 47 46 46 45 45 44 43 42 41 40 40 39 39 38 38 37 37 38 38 39 39 38 38 38 37 37 36 36 35 35 33 33 33 33 33 34 35 36 37
65 57 51 50 52 54 57 58 58 59 60 61 62 62 61 62 65 68 68 67 64 64 65 66 70 70 62 56 57 60 62 63 63 64 66 68 68 66 62 58 53 49 48 48 48 48 48 48 48 48 48 48 47 46 45 44 43 43 43 42 42 41 40 40 41 41 41 41 40 40 40 40 39 38 38 38 37 36 35 35 35 36 36 37 38 39
73 69 64 60 55 52 52 55 58 61 62 61 63 65 65 64 65 67 70 70 68 68 67 68 73 72 62 55 53 54 57 60 61 61 61 61 63 64 63 60 56 52 50 50 50 49 47 47 47 48 49 50 49 49 48 47 46 46 45 45 44 44 44 44 44 45 44 44 43 43 43 43 42 41 41 41 40 39 38 37 38 38 39 39 40 40
73 73 73 71 64 54 51 53 54 56 60 62 64 64 65 65 65 66 69 70 71 71 68 68 73 70 61 58 55 53 54 58 62 64 63 61 59 60 61 58 55 52 49 50 52 52 51 50 49 49 49 49 50 50 50 49 49 48 47 47 47 47 47 47 47 47 47 47 46 46 46 46 45 44 44 43 42 41 40 40 40 40 41 41 41 42
74 73 73 74 73 67 61 59 56 51 51 56 59 60 62 63 61 60 63 66 70 72 70 70 73 64 55 56 56 54 53 53 58 63 65 65 61 58 57 55 51 50 47 47 49 51 53 53 53 53 52 52 51 50 50 50 50 50 49 49 49 49 49 49 48 49 49 49 49 49 49 48 48 47 46 45 44 43 42 42 42 42 42 42 43 44
73 74 74 75 78 77 71 65 61 56 53 54 57 58 58 58 56 53 53 56 61 64 64 66 68 59 52 55 58 58 56 53 53 57 61 64 62 58 56 54 51 49 47 46 46 47 50 52 53 55 56 57 57 55 54 53 52 52 51 51 51 50 51 51 50 51 51 51 51 51 51 50 50 49 48 47 46 45 45 44 44 44 44 44 45 46
74 75 76 76 79 81 76 65 58 57 59 59 59 59 59 58 56 55 57 58 58 58 57 57 56 51 49 51 53 58 61 59 57 57 58 60 61 60 59 57 56 53 49 48 47 46 47 50 53 55 57 59 60 60 60 58 56 56 55 54 54 53 52 52 52 52 53 53 53 53 52 52 51 51 50 49 48 48 47 46 46 46 46 47 47 47
77 78 78 79 80 81 80 75 69 67 66 61 58 59 60 60 58 60 65 66 64 63 63 59 53 51 49 45 42 48 55 58 58 58 58 59 61 63 64 63 62 59 54 51 50 48 46 47 50 53 56 58 59 60 61 61 61 60 59 58 57 56 55 55 54 54 54 54 54 54 54 53 53 53 52 52 51 50 50 49 48 48 49 49 49 49
76 79 79 80 81 81 82 83 83 81 78 72 66 61 59 59 58 59 62 64 65 66 65 61 57 59 55 47 43 45 48 50 51 52 54 57 59 62 65 66 64 60 55 51 50 50 46 42 46 51 55 58 60 60 60 61 63 63 63 63 62 61 60 59 58 57 57 56 55 55 55 55 55 54 54 54 54 53 52 51 51 50 51 51 51 51
75 77 78 79 82 83 84 85 85 84 83 82 79 71 67 65 65 63 61 61 62 64 63 60 59 59 54 49 50 51 49 49 49 48 49 51 54 58 60 61 61 56 52 49 48 51 49 45 45 49 53 57 60 62 62 62 63 64 64 65 66 65 65 64 62 60 59 58 57 57 57 56 56 56 56 56 56 55 54 53 53 52 53 53 53 53
74 75 76 77 80 82 85 85 86 85 84 85 85 82 78 76 75 73 68 64 63 64 64 62 62 58 46 40 45 49 49 51 51 52 54 54 55 58 58 58 59 56 53 49 48 52 54 51 47 48 51 55 57 61 63 64 65 66 66 67 67 67 67 66 64 63 61 60 59 59 58 58 58 57 57 58 57 56 55 55 55 55 55 55 55 54
74 75 75 75 76 80 83 84 86 87 86 87 87 87 85 83 82 79 75 69 66 65 65 64 67 62 46 39 44 43 42 47 51 54 59 59 57 59 59 59 58 57 57 55 52 53 56 55 52 50 51 52 54 57 60 62 65 67 68 68 68 67 66 66 65 64 63 62 62 61 61 60 60 60 59 59 58 57 57 57 57 57 57 56 56 55
69 71 74 76 76 78 79 80 83 85 86 88 90 89 87 86 84 82 79 75 71 70 70 69 69 62 53 54 57 46 37 43 49 52 56 58 56 56 57 58 59 60 60 58 55 54 56 57 57 54 51 52 53 55 57 60 63 65 66 67 68 67 66 65 65 64 64 64 64 63 63 63 62 62 61 60 59 58 58 58 59 59 58 57 57 56
66 67 70 72 74 76 77 77 79 80 83 88 91 89 89 89 87 86 84 81 78 77 76 74 71 65 60 62 63 53 45 46 49 52 55 56 56 56 55 56 58 59 60 60 58 56 56 57 58 57 54 53 54 56 59 61 62 62 63 64 64 64 64 64 64 64 64 65 65 65 65 64 64 63 62 61 60 59 59 60 60 60 59 59 58 57
63 64 66 68 70 71 73 75 77 80 83 85 86 86 88 89 89 90 89 86 84 83 82 80 76 70 64 61 61 61 58 56 55 54 54 55 57 57 56 55 55 56 58 60 60 59 58 58 59 60 59 57 57 58 60 61 62 62 62 62 62 61 61 61 62 62 63 65 66 65 65 64 64 63 62 61 60 60 61 61 62 62 61 60 59 59
60 60 61 63 65 66 68 72 75 77 80 81 81 83 85 85 85 89 92 92 90 87 85 85 81 75 72 68 64 62 62 64 64 59 54 55 56 56 56 56 56 56 57 57 58 58 58 59 62 64 64 63 60 59 59 61 63 64 63 61 60 59 59 59 59 60 62 64 65 65 64 63 62 62 61 62 62 62 63 63 63 63 62 61 60 59
56 58 58 59 61 62 64 67 70 71 73 74 75 77 80 81 83 86 89 93 92 88 85 85 84 82 80 76 70 67 66 69 69 62 56 57 60 58 58 59 57 55 54 55 56 58 60 62 65 67 68 66 63 61 60 61 63 64 63 61 60 59 57 57 57 59 62 64 64 65 64 62 61 61 62 63 63 64 64 65 65 65 63 62 60 59
51 54 56 57 58 59 61 63 64 66 68 68 67 69 71 74 78 81 84 88 90 87 83 83 84 85 84 80 78 78 78 77 72 63 59 64 67 63 60 60 58 56 55 55 56 58 60 63 65 67 68 67 65 64 63 62 63 62 61 61 62 61 59 56 56 59 62 63 63 64 63 63 63 63 64 65 65 66 66 66 67 67 65 63 60 59
54 52 52 52 54 55 57 60 61 62 62 61 61 64 66 67 70 73 78 83 86 85 82 80 79 81 82 81 82 83 84 84 76 66 64 70 72 68 62 59 60 60 59 58 58 58 59 60 63 65 67 67 66 65 65 64 63 61 59 60 62 63 60 59 60 62 64 64 65 66 66 66 66 66 66 66 66 67 67 68 68 68 66 63 60 59
59 57 56 56 53 50 51 55 57 57 56 54 55 59 62 63 64 67 72 76 77 79 81 79 77 77 77 77 80 82 84 85 80 73 73 75 74 73 69 65 65 66 65 64 62 61 60 60 61 62 64 65 66 65 65 65 63 60 58 58 60 60 60 61 65 67 67 68 68 68 68 67 67 66 66 66 66 67 67 68 69 68 66 63 61 60
61 61 62 60 56 53 52 53 53 53 51 50 51 53 54 56 59 62 65 66 66 71 77 77 76 76 75 75 77 79 81 83 82 80 81 79 75 74 73 69 68 69 70 70 68 65 63 63 62 61 61 62 64 65 65 64 62 59 58 58 58 57 58 62 65 65 65 66 65 65 64 64 64 64 64 64 65 66 67 68 68 67 65 63 62 61
61 62 64 63 60 58 55 52 52 51 46 46 50 52 52 54 54 52 52 53 54 59 67 72 72 72 73 74 75 75 77 79 81 83 85 84 81 76 72 68 67 68 69 70 69 68 66 65 64 63 62 62 63 63 64 64 62 59 59 58 57 57 59 61 61 61 62 62 61 61 61 61 61 62 62 63 64 65 66 67 66 64 62 62 61 61
58 59 62 63 62 61 59 57 54 45 37 41 50 55 55 54 50 47 48 48 45 45 50 56 58 60 66 71 73 74 75 76 78 81 84 85 85 83 78 72 67 66 67 67 67 66 67 66 64 63 63 63 63 64 65 65 64 62 61 59 58 59 62 61 60 59 60 59 58 58 58 58 58 59 60 62 63 65 66 66 64 61 60 60 61 60
59 59 59 60 61 62 63 62 56 45 38 42 49 52 54 53 50 50 52 51 49 49 50 50 50 49 54 60 66 70 74 76 77 79 80 80 81 83 83 80 74 69 66 66 65 65 65 65 64 62 61 61 62 63 65 66 66 64 63 61 60 61 62 61 60 59 58 56 55 54 55 56 57 58 59 60 62 64 66 65 63 60 58 59 59 58
61 60 59 59 59 60 60 60 58 54 51 50 48 47 49 51 51 52 53 50 49 51 53 55 55 53 51 52 56 61 66 69 72 74 75 76 77 77 78 79 80 78 73 68 66 65 64 63 62 60 59 59 60 62 63 64 66 65 64 62 62 63 62 62 61 60 57 55 54 53 53 54 55 57 57 58 61 64 66 65 62 59 57 57 57 57
61 62 62 61 60 61 59 56 56 58 58 55 52 50 50 50 50 52 54 53 51 49 49 52 55 55 55 54 54 55 57 59 62 65 68 70 71 71 70 72 76 80 80 75 70 68 67 64 61 59 59 59 60 61 62 63 64 64 64 64 64 64 63 63 62 59 56 54 54 53 52 52 53 54 54 55 58 62 63 62 59 57 56 56 56 55
61 62 63 63 64 64 61 55 52 54 56 58 58 57 55 53 51 52 54 57 57 56 56 56 55 56 57 56 54 54 55 56 58 60 62 64 66 66 65 66 69 72 75 77 77 74 72 69 64 62 61 60 60 62 63 63 63 64 64 65 65 65 64 63 61 59 56 54 53 52 51 51 51 50 51 52 55 57 58 58 56 55 55 55 55 54
62 63 64 63 63 63 60 55 53 53 54 56 58 59 58 58 57 55 54 55 57 58 58 58 59 61 62 60 58 55 55 56 59 61 62 63 63 63 62 64 66 66 68 72 75 75 74 71 69 67 66 64 63 64 63 63 63 64 65 65 66 65 65 63 61 58 55 53 52 51 50 50 51 51 51 52 53 55 56 56 56 55 55 54 54 53
63 64 64 64 64 64 61 56 55 56 56 54 54 56 57 58 58 57 55 55 55 56 56 57 59 61 63 64 64 63 61 59 59 61 64 65 65 64 63 62 63 64 63 64 66 68 69 70 69 70 70 68 67 66 64 62 62 64 66 66 66 66 65 63 60 56 54 53 52 52 51 51 52 54 55 54 54 55 56 57 57 56 55 54 54 53
63 63 63 64 65 64 59 54 55 59 58 55 53 55 55 55 57 57 56 55 55 56 57 58 59 60 61 63 66 70 71 69 65 65 66 67 66 67 67 65 64 63 62 61 60 61 62 64 66 69 71 70 70 68 65 61 61 64 66 66 66 66 65 63 59 55 54 54 54 53 53 53 54 55 55 55 55 55 56 57 57 57 56 54 54 53
62 62 62 65 65 61 56 55 59 62 59 55 55 56 55 54 55 55 54 53 53 54 55 56 57 58 59 61 63 67 71 73 73 73 73 72 70 69 69 69 68 66 63 62 60 58 58 58 60 63 67 69 70 70 68 64 61 62 64 66 66 65 65 63 60 55 53 54 55 54 54 54 54 54 55 55 55 55 55 56 57 57 56 55 54 55
Wind_Direction
225 227 228 229 231 232 233 234 235 236 236 236 236 237 238 240 239 239 240 241 241 244 246 247 247 243 235 234 237 240 245 249 247 243 241 241 241 241 241 241 240 237 234 237 242 247 251 253 255 255 253 251 252 253 255 255 253 251 251 253 255 257 258 259 259 256 255 254 254 255 256 257 260 264 269 272 273 275 277 279 278 276 274 274 275 278
226 227 228 230 232 233 234 235 236 237 237 237 238 238 239 241 241 241 241 242 243 244 245 246 246 243 238 234 236 240 244 248 250 246 240 236 238 241 242 242 241 236 233 237 241 244 247 250 253 255 255 254 253 252 253 255 256 255 254 253 254 256 258 259 259 260 260 259 258 258 260 264 268 272 275 276 277 279 281 279 275 272 272 273 277 281
225 227 228 229 231 232 232 233 235 236 236 237 238 238 239 240 241 241 241 242 243 244 245 246 246 243 241 236 234 241 245 248 250 250 245 240 239 241 246 246 241 238 238 240 243 243 245 247 250 252 254 254 253 252 252 253 256 257 256 253 252 253 253 253 254 256 258 260 263 266 268 269 271 274 274 274 275 276 275 272 270 270 272 276 281 284
227 229 229 228 228 230 232 232 233 234 235 236 236 237 238 239 240 241 242 242 243 245 245 246 246 242 242 239 233 238 245 247 249 250 248 245 242 241 244 246 244 242 244 244 245 245 244 245 248 250 251 252 252 253 254 255 256 257 257 256 254 253 252 252 254 255 257 262 268 273 274 273 273 271 270 270 269 266 265 267 269 272 276 280 283 284
229 230 229 228 229 230 232 232 232 233 235 236 237 237 238 240 241 242 244 244 244 245 245 246 246 241 239 241 236 234 241 244 246 248 248 248 247 245 243 246 249 248 247 248 248 248 246 245 247 249 251 253 254 255 256 257 257 258 258 258 258 257 255 254 256 257 260 264 270 274 276 277 275 272 271 269 265 263 265 269 273 276 279 281 282 283
228 227 226 227 229 231 232 232 233 235 236 238 239 239 240 241 243 243 244 245 245 244 244 246 247 241 236 239 237 233 237 242 245 246 249 251 251 250 248 248 250 250 249 249 249 249 249 248 249 252 254 256 256 255 255 255 257 258 260 261 261 260 259 257 256 257 262 268 272 275 277 276 275 273 273 270 267 268 271 273 276 279 281 282 283 283
226 226 225 225 227 229 232 233 233 235 237 238 240 241 242 242 243 244 245 245 246 245 244 245 247 242 235 236 238 236 235 239 244 246 248 253 254 253 252 250 249 251 250 248 247 248 249 248 249 251 252 253 254 254 253 253 255 257 259 260 262 262 261 259 258 260 266 272 274 274 274 272 272 272 271 269 269 272 274 275 277 279 280 282 283 283
225 226 225 224 226 228 231 232 233 235 238 239 240 241 243 244 244 245 246 246 245 245 244 243 246 245 237 231 235 239 236 237 241 246 248 252 256 254 252 249 248 251 251 250 247 246 247 247 247 248 248 249 248 250 253 253 252 252 254 256 258 260 261 260 262 265 270 272 271 270 270 270 269 268 268 268 270 272 272 273 274 276 278 281 282 283
227 227 226 225 227 229 231 232 234 235 238 240 241 241 243 245 245 245 245 246 245 245 244 242 245 248 240 230 232 237 238 237 238 243 247 249 253 253 252 250 249 250 252 253 253 250 249 247 246 246 247 250 250 249 251 251 250 249 251 253 254 255 257 258 261 265 268 268 266 266 266 267 266 265 265 268 271 272 272 273 273 275 276 278 279 281
230 229 228 227 227 229 231 232 234 235 238 240 241 241 241 244 245 245 246 247 248 247 245 243 246 250 244 233 232 235 235 238 239 241 244 246 250 252 253 254 251 251 253 255 256 256 254 251 248 247 249 252 253 252 251 249 250 250 250 251 252 252 252 254 258 261 263 263 263 263 263 262 262 262 263 265 269 270 271 271 271 272 273 275 277 279
230 230 229 228 227 228 229 231 233 234 235 237 239 239 239 242 244 246 247 248 249 248 245 244 246 251 247 235 232 234 232 234 238 240 243 245 249 252 254 255 255 254 254 255 256 257 259 259 256 253 251 252 253 254 254 253 251 251 250 249 248 247 248 250 253 256 258 259 259 260 260 260 260 260 261 263 265 266 268 269 269 271 274 277 280 281
225 227 228 228 227 228 229 230 231 231 233 235 236 237 237 239 240 243 246 246 248 247 244 244 244 248 246 234 229 233 232 232 235 237 242 245 249 253 254 255 255 255 255 256 258 259 260 261 260 258 254 253 254 254 254 254 253 253 250 249 247 245 245 246 248 251 252 255 257 258 259 257 256 256 258 260 262 264 267 269 271 274 277 280 282 284
223 225 228 227 226 226 228 229 229 230 232 234 235 235 236 237 238 240 243 244 247 247 244 244 245 246 245 237 231 233 234 234 234 236 239 242 245 250 252 254 254 255 257 258 260 260 259 257 258 258 257 256 255 254 254 253 253 254 251 250 247 245 245 245 246 247 249 252 254 255 256 254 254 256 260 261 262 264 267 268 272 276 279 281 283 284
222 223 225 225 223 223 224 227 229 229 231 234 235 237 238 239 239 240 242 244 247 247 246 245 246 247 245 239 234 235 236 237 236 237 240 240 243 246 250 254 256 257 259 259 260 259 259 258 256 256 257 258 258 257 255 254 254 254 252 250 248 247 247 247 247 247 247 249 251 253 254 254 255 258 261 262 262 264 266 268 272 275 278 280 282 283
221 222 224 224 223 223 224 226 229 230 232 235 236 238 239 240 243 245 246 248 250 250 250 249 249 249 247 242 239 240 242 243 241 239 240 240 241 244 248 252 254 256 258 258 258 258 258 259 259 258 258 259 259 258 257 256 256 256 253 250 248 247 247 248 248 248 249 250 250 252 253 254 256 258 260 262 261 262 265 267 270 274 278 280 281 282
224 225 227 228 227 226 226 226 228 229 229 229 231 233 233 235 241 245 247 249 250 250 250 249 250 251 248 244 243 243 243 244 244 243 241 240 241 242 245 249 253 254 255 256 256 256 257 258 259 260 260 258 258 258 256 256 256 256 255 252 249 247 246 248 249 249 250 251 252 253 254 255 258 261 263 263 262 264 266 270 274 277 279 279 279 280
224 225 226 228 230 229 228 228 228 229 229 229 229 232 232 233 238 241 242 245 245 246 245 246 248 250 248 244 241 241 242 243 245 245 244 244 244 244 244 247 250 253 255 255 255 255 256 257 259 259 259 258 256 256 256 255 254 253 252 252 251 248 247 248 248 249 249 251 253 254 255 258 261 264 265 263 264 266 269 273 276 277 276 276 277 278
225 225 225 226 229 229 229 230 231 233 234 233 232 233 235 239 243 244 245 246 246 246 245 245 247 248 248 244 240 241 243 244 247 249 248 248 248 247 246 246 247 250 253 255 256 256 256 257 259 259 259 258 257 256 254 253 252 251 249 249 250 249 249 248 249 250 251 252 254 255 256 260 263 265 265 265 265 267 272 276 276 275 275 275 276 278
227 228 228 229 232 233 232 232 233 234 235 237 237 235 236 240 243 245 247 248 249 250 249 248 248 247 247 245 243 243 245 246 249 252 252 252 251 249 248 247 247 248 250 252 254 255 256 257 258 259 259 259 258 257 255 253 252 250 248 248 248 249 249 250 250 252 253 254 255 255 256 259 262 264 264 265 265 269 275 277 276 277 277 277 279 280
226 228 229 228 232 236 235 234 234 233 234 236 238 237 238 239 241 244 247 250 252 253 253 251 250 247 246 246 246 245 246 247 248 250 251 253 253 252 250 248 247 247 248 249 251 252 253 254 255 256 257 257 257 257 255 254 253 251 250 249 248 249 250 250 251 252 253 254 254 254 255 258 261 263 263 264 266 271 275 276 276 278 278 279 282 282
225 226 227 226 230 234 235 234 235 236 236 237 238 239 239 240 241 242 244 247 249 251 251 251 250 249 247 248 247 246 246 247 248 248 249 251 253 254 253 251 248 246 247 248 249 250 252 253 254 255 256 257 257 257 256 255 254 253 252 251 250 250 251 251 252 253 254 254 254 254 255 258 260 262 263 264 268 272 273 274 275 277 279 281 282 282
228 228 228 229 234 237 238 237 236 236 237 239 241 242 242 242 243 243 243 244 245 247 249 249 250 249 247 247 247 246 246 247 248 249 250 251 253 254 254 254 251 248 247 248 249 250 251 253 254 255 256 257 257 256 256 256 255 254 253 252 251 251 251 252 253 254 255 255 255 255 256 258 261 262 264 266 268 270 272 273 274 276 279 281 280 281
230 231 231 232 235 239 241 240 239 238 237 237 238 240 241 241 242 244 245 246 247 249 250 251 252 249 246 246 249 249 248 248 249 250 252 253 254 255 255 255 254 251 248 247 248 249 249 250 252 253 253 254 255 255 255 255 255 255 253 252 251 251 251 252 253 254 255 256 256 256 257 260 261 262 264 266 267 269 270 271 273 276 279 279 279 280
230 231 232 233 233 236 240 238 237 238 238 236 237 237 238 240 242 244 245 246 247 249 250 252 253 250 244 244 248 250 250 249 249 250 251 252 254 255 255 254 252 251 247 245 245 245 247 247 248 250 250 251 252 253 253 254 254 254 254 253 253 252 252 253 253 254 255 256 256 257 258 260 261 262 264 265 266 267 268 270 272 275 277 277 278 280
231 231 231 231 231 232 233 232 229 230 231 232 234 235 236 238 240 242 244 244 246 248 250 252 254 251 245 243 244 246 248 247 248 249 250 251 251 251 252 252 251 250 249 247 245 243 244 246 246 247 248 249 250 251 252 253 253 253 254 254 254 255 255 256 256 256 256 257 258 258 259 259 260 262 263 264 265 266 267 269 271 274 275 276 278 279
232 232 230 230 231 230 230 232 231 230 230 230 230 230 231 233 234 236 240 242 244 248 250 252 255 253 247 244 242 242 244 245 244 245 246 247 248 247 248 250 252 253 253 253 251 246 243 244 246 246 246 247 247 248 250 250 251 252 252 253 253 254 255 256 257 257 258 258 259 259 260 260 261 263 263 264 265 266 267 268 271 273 275 276 278 279
233 233 231 231 232 230 230 232 232 232 234 234 233 233 235 237 238 240 243 244 245 248 249 250 253 252 247 244 244 243 244 245 244 244 244 245 246 247 247 247 251 254 256 255 256 253 248 245 245 246 247 246 245 245 246 247 248 249 250 250 251 252 253 254 256 257 258 259 260 261 261 262 263 264 265 266 267 268 268 269 271 274 275 276 277 278
233 233 232 231 232 231 229 231 233 236 238 236 234 235 237 239 242 244 245 246 247 250 250 250 252 252 246 240 240 244 246 247 247 247 248 249 249 250 251 251 252 254 255 254 255 256 254 248 244 244 245 246 245 244 244 245 246 248 249 250 251 251 252 253 255 256 257 258 260 261 262 263 264 265 267 268 269 269 269 269 271 274 274 275 276 277
234 234 232 232 233 231 230 232 237 241 242 241 238 236 235 236 238 241 242 242 243 247 249 249 250 251 248 239 237 243 246 248 249 248 248 251 252 252 253 254 254 253 252 252 252 253 252 245 239 239 241 243 244 245 244 243 244 245 247 250 252 253 253 254 254 255 257 258 259 260 261 263 265 266 267 268 269 269 269 270 271 273 273 274 274 276
235 235 234 234 235 233 231 233 238 242 244 245 244 241 240 241 242 243 243 240 241 246 249 248 246 248 249 246 245 246 245 246 248 247 246 248 250 252 252 252 252 252 250 250 250 249 247 241 235 236 237 238 240 242 243 244 244 244 245 248 250 252 253 254 255 256 257 258 259 260 261 263 264 265 266 266 267 267 268 269 271 272 272 272 273 274
235 236 235 236 238 236 233 234 238 241 244 245 245 244 245 246 247 248 248 245 245 248 249 249 248 246 244 244 247 249 247 246 247 249 249 249 251 253 252 252 252 252 251 250 247 245 244 242 238 236 237 238 238 239 241 243 244 245 246 247 248 249 251 253 255 256 257 258 259 260 261 262 262 263 264 264 265 266 267 269 270 271 271 271 271 273
235 236 236 237 239 237 234 235 239 241 243 245 245 245 246 247 248 249 249 248 248 250 251 250 250 246 239 240 245 245 245 246 246 248 251 251 251 252 253 253 254 253 251 249 245 242 243 244 241 238 238 240 240 240 241 242 243 244 245 247 248 249 250 251 253 254 255 256 257 258 259 260 261 261 262 263 264 265 266 267 268 268 269 269 270 272
236 237 237 238 241 239 236 238 240 242 245 246 244 243 245 247 248 249 249 248 249 251 252 252 252 249 244 246 247 242 240 246 246 245 248 250 251 252 252 252 253 252 251 249 246 242 241 243 244 242 240 241 243 243 243 243 244 244 245 247 248 249 250 251 252 253 253 254 255 256 257 258 258 259 260 261 262 263 264 265 266 267 268 268 270 271
235 237 237 239 242 242 239 240 242 244 247 246 242 241 243 245 247 249 250 250 251 253 255 255 254 252 249 250 249 244 241 246 248 247 247 249 250 251 251 250 250 252 252 251 248 245 243 245 247 247 244 243 244 245 245 246 246 247 248 248 249 251 252 252 253 253 253 253 254 254 255 256 257 258 259 260 261 262 263 264 265 266 267 268 269 271
235 236 237 238 241 241 240 241 244 246 247 245 241 239 242 244 246 249 251 251 252 254 256 256 255 253 252 253 252 248 245 244 247 248 248 248 250 251 251 251 252 253 254 254 253 250 249 250 250 250 248 245 245 246 247 249 250 250 250 250 251 252 253 253 254 254 254 254 254 254 254 254 255 257 258 259 260 261 262 263 264 265 266 267 268 269
236 237 238 239 240 240 239 239 243 246 246 246 243 241 242 244 246 248 249 249 250 252 255 257 257 256 256 254 252 251 248 245 245 246 247 250 252 252 253 255 256 256 255 256 256 255 254 253 252 252 251 250 249 248 249 250 251 251 252 253 254 254 254 254 254 254 254 254 254 254 254 254 256 257 258 259 260 261 262 263 264 265 266 267 268 269
236 236 238 240 241 241 241 241 243 246 245 245 244 243 243 245 246 248 249 247 247 251 255 257 257 257 257 256 253 252 252 251 247 243 243 249 252 253 255 256 257 258 256 255 256 255 254 253 253 253 253 253 254 253 252 251 251 252 253 254 256 256 256 256 256 255 255 254 255 255 256 256 257 259 260 261 261 262 263 264 264 265 266 267 268 269
236 235 236 240 242 242 242 243 244 245 244 243 244 244 245 246 246 249 251 249 246 249 254 256 257 256 256 256 254 253 254 254 250 242 241 249 254 255 255 255 256 257 256 256 257 257 255 253 253 254 254 255 257 257 255 253 250 250 252 253 255 256 257 257 257 256 255 255 255 256 258 259 260 261 261 262 262 262 263 264 265 265 266 267 267 268
236 235 234 237 241 242 243 244 244 245 245 243 243 244 245 246 246 248 252 250 246 247 253 256 257 257 256 255 255 254 254 255 252 246 247 253 255 255 254 253 254 256 256 255 258 259 258 255 254 254 255 256 256 257 257 256 253 251 251 251 251 253 255 257 256 256 256 256 257 258 260 262 262 262 261 261 261 262 262 263 264 265 265 266 267 267
236 236 235 237 241 242 244 246 245 245 245 244 243 244 245 246 247 247 251 251 247 246 250 253 255 256 256 255 254 254 254 253 252 251 252 255 256 255 254 254 254 255 255 256 257 259 259 257 255 254 255 256 256 257 258 258 257 254 253 252 251 251 253 254 254 254 255 257 258 260 261 262 263 262 261 260 260 260 261 262 263 264 265 266 266 266
238 238 238 239 242 244 245 248 248 246 245 244 244 244 245 245 245 246 250 252 250 248 249 251 254 255 256 256 255 255 253 252 251 250 250 252 254 255 255 255 255 255 256 257 258 259 259 257 256 255 255 256 257 257 259 261 260 258 257 256 255 254 253 252 251 252 254 255 257 259 260 261 261 261 260 259 259 259 259 260 262 263 264 264 264 264
240 241 241 241 241 242 244 248 250 248 245 244 245 244 244 243 243 246 250 252 251 251 250 251 253 255 255 256 256 255 255 254 252 250 249 249 250 252 254 255 256 256 255 256 257 257 258 258 257 255 255 256 257 258 260 262 262 261 260 259 259 258 256 254 253 253 253 254 255 256 258 260 261 261 261 260 260 259 259 259 260 262 263 263 262 262
241 243 244 243 242 242 242 243 245 246 244 244 245 246 246 246 244 245 249 250 249 250 250 251 252 254 254 254 254 254 254 254 253 251 251 251 251 251 253 254 255 256 255 254 253 254 255 256 256 256 255 255 257 258 259 261 262 261 261 260 260 260 259 258 258 257 257 257 257 257 256 257 259 261 261 261 260 260 260 260 260 260 260 260 261 261
241 242 245 246 246 246 244 242 242 244 243 243 244 245 248 250 248 247 249 249 249 251 252 253 255 255 253 252 251 250 250 251 251 252 253 254 254 254 254 254 254 255 255 252 250 250 251 252 253 253 254 255 257 258 259 260 260 261 262 263 262 262 262 263 263 263 263 263 262 261 258 257 257 258 259 260 261 260 260 260 259 259 259 259 259 261
242 243 246 248 248 248 248 246 243 241 241 242 244 245 247 249 249 249 250 250 248 249 251 253 254 254 251 249 248 248 248 249 250 251 252 254 255 256 257 255 254 254 254 252 251 251 252 251 251 252 253 255 256 257 259 260 261 263 264 265 264 264 264 265 265 265 266 266 265 264 262 260 259 259 259 259 260 260 260 260 260 259 259 259 259 260
244 245 246 248 249 250 249 248 245 243 242 244 246 247 249 250 250 250 251 250 248 247 248 250 251 252 251 249 248 248 247 247 247 249 250 252 252 254 255 255 254 254 254 253 252 253 254 254 252 252 253 254 255 256 257 259 262 264 265 265 265 265 265 265 265 265 265 264 264 263 263 263 262 261 260 259 258 259 260 261 261 261 260 260 259 259
245 247 248 249 251 252 251 250 250 248 247 248 250 250 250 252 254 253 252 252 252 251 252 253 254 253 252 250 246 244 244 245 247 248 249 250 251 251 251 251 252 252 252 251 252 254 256 256 256 254 254 254 255 256 257 257 260 263 264 264 264 265 265 266 266 265 263 262 261 261 261 262 262 261 258 257 257 258 260 260 261 260 259 259 259 258
247 248 249 250 253 255 254 253 254 253 251 251 253 252 252 253 255 255 255 254 254 255 256 256 256 254 252 250 247 243 242 243 246 249 249 250 250 250 249 248 248 249 249 250 251 253 255 256 257 257 256 255 255 256 257 257 257 259 260 262 262 263 264 265 265 264 262 260 258 257 257 258 259 257 255 253 254 255 257 259 259 259 258 257 257 256
247 249 251 253 254 256 255 254 255 256 255 253 253 254 252 251 251 252 252 253 254 255 256 256 256 256 255 254 253 252 249 245 245 247 249 249 250 250 248 247 247 247 247 247 249 251 253 254 255 256 256 255 255 255 256 257 256 256 257 258 259 260 261 262 263 263 261 258 256 254 254 255 255 254 253 251 251 253 255 257 258 258 257 256 256 255
248 250 252 253 254 254 254 254 255 255 253 252 252 251 249 248 248 248 249 250 251 253 254 256 257 258 258 257 257 257 256 253 250 249 249 248 248 248 247 245 245 245 245 245 246 248 250 252 253 254 255 254 254 255 255 255 256 255 255 255 256 258 258 259 260 261 260 258 255 254 254 253 252 252 252 251 251 253 254 256 256 257 256 255 255 254
250 251 252 253 254 254 254 254 254 253 251 249 248 248 247 246 246 245 245 246 248 251 253 255 257 258 258 258 257 258 258 258 256 255 254 251 249 248 247 246 246 246 245 245 245 245 247 251 254 255 255 255 255 256 255 254 254 255 254 254 254 255 256 257 258 259 259 258 256 254 253 253 250 249 250 251 252 253 254 255 256 255 255 254 253 253
Height
5749 5751 5752 5760 5771 5778 5784 5788 5792 5796 5799 5801 5801 5802 5804 5805 5809 5813 5816 5819 5820 5820 5822 5824 5825 5829 5835 5835 5835 5835 5834 5835 5839 5844 5847 5848 5849 5851 5853 5854 5855 5857 5858 5857 5857 5860 5862 5863 5864 5865 5866 5867 5867 5867 5867 5867 5868 5868 5868 5868 5868 5867 5868 5869 5870 5870 5870 5871 5871 5870 5871 5871 5871 5872 5873 5874 5874 5874 5874 5874 5874 5873 5872 5872 5872 5872
5743 5743 5751 5765 5775 5779 5782 5786 5789 5791 5793 5795 5796 5798 5800 5802 5806 5810 5812 5815 5817 5817 5819 5820 5820 5824 5829 5832 5833 5833 5832 5834 5837 5842 5845 5846 5847 5848 5850 5852 5853 5854 5854 5854 5856 5858 5859 5860 5861 5862 5864 5865 5865 5865 5865 5865 5865 5866 5867 5867 5867 5866 5867 5868 5867 5868 5868 5868 5868 5868 5869 5870 5870 5871 5872 5872 5872 5872 5872 5872 5871 5870 5870 5869 5869 5870
5734 5739 5755 5768 5771 5773 5777 5780 5782 5784 5786 5787 5789 5792 5795 5798 5802 5805 5808 5811 5812 5813 5814 5815 5816 5819 5824 5828 5831 5830 5830 5833 5835 5839 5843 5844 5845 5847 5848 5849 5850 5851 5852 5853 5854 5855 5855 5857 5858 5859 5861 5862 5862 5863 5863 5863 5863 5863 5864 5865 5864 5864 5865 5865 5865 5866 5866 5866 5866 5867 5868 5868 5869 5870 5870 5870 5870 5870 5869 5868 5867 5867 5867 5867 5868 5868
5728 5743 5759 5762 5763 5768 5771 5772 5774 5776 5778 5779 5781 5786 5789 5793 5797 5800 5804 5806 5808 5808 5810 5810 5810 5814 5819 5822 5827 5829 5829 5831 5833 5836 5839 5841 5843 5846 5846 5846 5847 5849 5850 5850 5851 5852 5852 5853 5854 5856 5858 5859 5859 5860 5861 5861 5861 5861 5861 5862 5862 5862 5863 5863 5864 5865 5865 5864 5865 5866 5866 5866 5867 5868 5868 5868 5867 5866 5865 5865 5864 5865 5865 5865 5866 5865
5731 5748 5756 5755 5761 5766 5764 5764 5767 5769 5772 5773 5776 5782 5786 5790 5793 5797 5799 5801 5803 5803 5804 5805 5803 5808 5815 5817 5823 5828 5827 5828 5830 5832 5834 5837 5841 5844 5844 5845 5846 5847 5848 5848 5849 5849 5849 5850 5852 5853 5854 5856 5857 5859 5859 5858 5858 5858 5859 5859 5859 5860 5861 5862 5862 5863 5863 5864 5864 5865 5865 5865 5865 5865 5865 5865 5864 5863 5863 5862 5862 5863 5863 5863 5863 5863
5731 5741 5746 5751 5757 5757 5755 5758 5764 5766 5769 5770 5773 5780 5784 5787 5790 5792 5794 5795 5796 5797 5799 5800 5797 5801 5811 5813 5818 5824 5824 5824 5827 5829 5832 5835 5839 5841 5842 5844 5845 5844 5845 5846 5846 5846 5846 5848 5849 5850 5852 5853 5854 5856 5856 5855 5855 5856 5857 5856 5857 5858 5859 5860 5860 5860 5861 5862 5863 5863 5863 5863 5863 5863 5863 5862 5861 5861 5861 5861 5861 5861 5860 5860 5860 5860
5725 5733 5740 5746 5748 5748 5749 5753 5759 5763 5765 5766 5772 5777 5779 5783 5786 5787 5789 5789 5789 5790 5793 5795 5793 5795 5805 5811 5814 5819 5822 5823 5825 5827 5830 5833 5836 5839 5840 5842 5842 5841 5842 5842 5843 5844 5844 5846 5847 5847 5849 5850 5851 5852 5851 5852 5853 5854 5854 5854 5854 5855 5856 5857 5857 5858 5859 5860 5860 5860 5861 5861 5861 5861 5861 5859 5858 5859 5859 5859 5859 5858 5858 5858 5857 5857
5720 5728 5734 5739 5740 5741 5742 5748 5757 5760 5760 5763 5770 5773 5775 5779 5781 5782 5784 5781 5780 5783 5786 5790 5791 5790 5797 5807 5812 5815 5820 5822 5823 5825 5829 5831 5833 5835 5837 5839 5839 5839 5839 5839 5839 5841 5842 5843 5845 5845 5845 5846 5848 5848 5848 5850 5851 5851 5851 5852 5852 5853 5854 5854 5854 5855 5856 5857 5857 5857 5858 5858 5858 5858 5857 5856 5856 5857 5857 5856 5856 5855 5855 5855 5854 5854
5720 5723 5729 5735 5736 5735 5739 5748 5754 5756 5757 5761 5764 5767 5772 5774 5774 5776 5775 5772 5773 5775 5778 5786 5789 5787 5790 5804 5812 5812 5815 5819 5822 5825 5827 5828 5829 5831 5833 5835 5836 5836 5835 5835 5836 5838 5839 5840 5841 5842 5842 5843 5845 5846 5846 5847 5847 5847 5848 5848 5849 5850 5851 5851 5851 5852 5853 5853 5854 5854 5854 5855 5855 5855 5854 5853 5853 5854 5853 5853 5853 5852 5852 5851 5851 5850
5714 5719 5727 5729 5728 5732 5741 5746 5748 5752 5755 5755 5756 5761 5768 5767 5767 5770 5767 5767 5769 5767 5773 5784 5789 5784 5785 5798 5808 5808 5812 5817 5820 5823 5823 5825 5826 5827 5829 5831 5833 5834 5833 5833 5834 5835 5836 5837 5838 5839 5840 5841 5842 5842 5843 5843 5844 5844 5844 5845 5846 5847 5847 5847 5847 5848 5849 5849 5850 5850 5851 5851 5851 5851 5850 5850 5850 5850 5850 5850 5849 5849 5848 5848 5847 5847
5708 5715 5718 5718 5723 5731 5736 5737 5741 5747 5746 5746 5750 5755 5760 5760 5761 5762 5760 5763 5761 5757 5771 5784 5787 5783 5780 5791 5801 5803 5810 5815 5817 5819 5820 5822 5824 5825 5827 5828 5829 5830 5830 5831 5831 5833 5834 5834 5835 5836 5837 5838 5839 5839 5840 5841 5841 5841 5841 5842 5842 5843 5843 5844 5844 5844 5845 5845 5846 5846 5847 5848 5848 5847 5847 5847 5847 5846 5846 5846 5846 5845 5845 5845 5844 5844
5702 5706 5708 5713 5721 5725 5727 5729 5734 5737 5737 5740 5744 5747 5752 5753 5754 5754 5752 5754 5749 5752 5772 5782 5782 5776 5770 5783 5797 5800 5806 5811 5814 5817 5818 5821 5823 5823 5824 5824 5825 5826 5827 5828 5829 5831 5832 5832 5832 5832 5834 5835 5835 5836 5837 5838 5838 5838 5839 5839 5839 5840 5840 5840 5840 5841 5842 5842 5842 5843 5843 5844 5844 5844 5844 5844 5844 5843 5843 5843 5842 5842 5842 5842 5841 5841
5696 5701 5705 5711 5715 5717 5720 5723 5726 5729 5731 5734 5736 5740 5744 5745 5746 5745 5745 5745 5742 5753 5771 5775 5772 5764 5760 5779 5794 5796 5801 5806 5810 5814 5816 5819 5820 5820 5819 5819 5820 5822 5823 5825 5826 5828 5828 5828 5829 5829 5830 5831 5832 5833 5834 5835 5835 5835 5836 5836 5837 5837 5836 5836 5837 5838 5838 5839 5839 5840 5840 5841 5841 5840 5841 5841 5841 5840 5840 5840 5839 5839 5839 5838 5838 5837
5691 5695 5697 5701 5705 5709 5713 5715 5718 5722 5726 5727 5731 5736 5738 5739 5739 5738 5740 5740 5740 5753 5763 5765 5762 5751 5754 5778 5791 5793 5797 5801 5807 5810 5812 5816 5817 5816 5816 5816 5818 5819 5819 5821 5822 5823 5823 5824 5825 5825 5826 5827 5828 5829 5830 5831 5831 5832 5833 5833 5834 5834 5833 5833 5834 5834 5835 5836 5836 5837 5837 5837 5837 5838 5838 5838 5838 5837 5837 5837 5837 5836 5836 5835 5835 5834
5685 5686 5689 5695 5701 5707 5709 5713 5717 5722 5725 5727 5732 5734 5733 5735 5735 5736 5739 5738 5741 5752 5755 5756 5751 5740 5755 5780 5788 5791 5793 5794 5800 5804 5807 5812 5814 5814 5813 5813 5814 5814 5815 5816 5817 5818 5819 5819 5820 5821 5823 5824 5825 5826 5826 5827 5827 5828 5829 5830 5830 5830 5830 5830 5831 5831 5832 5833 5833 5833 5834 5834 5834 5835 5835 5835 5835 5834 5834 5834 5834 5833 5833 5832 5832 5831
5681 5684 5691 5698 5702 5706 5708 5712 5716 5717 5718 5722 5726 5724 5725 5732 5735 5733 5734 5735 5741 5744 5742 5745 5741 5739 5760 5777 5781 5786 5787 5786 5792 5797 5802 5807 5809 5810 5810 5809 5810 5809 5810 5811 5812 5813 5814 5814 5815 5817 5819 5820 5821 5822 5822 5823 5823 5824 5825 5825 5826 5827 5827 5827 5828 5828 5829 5829 5830 5830 5831 5831 5831 5831 5832 5832 5831 5831 5830 5830 5831 5830 5830 5829 5828 5827
5678 5683 5691 5694 5697 5702 5706 5709 5710 5710 5712 5716 5716 5716 5724 5733 5729 5725 5727 5730 5733 5730 5731 5737 5737 5743 5758 5765 5772 5781 5781 5782 5786 5789 5796 5801 5802 5805 5806 5807 5806 5805 5805 5805 5806 5808 5809 5809 5811 5812 5814 5815 5816 5817 5818 5818 5819 5820 5821 5821 5822 5823 5823 5824 5824 5825 5826 5826 5826 5827 5827 5827 5827 5828 5828 5828 5828 5827 5827 5827 5827 5827 5826 5825 5824 5823
5677 5681 5686 5689 5693 5697 5701 5703 5703 5704 5708 5708 5709 5718 5727 5726 5719 5721 5723 5723 5722 5721 5726 5733 5735 5744 5750 5754 5768 5777 5778 5782 5782 5782 5789 5793 5796 5800 5801 5802 5802 5801 5801 5800 5801 5803 5804 5805 5806 5807 5809 5810 5811 5813 5813 5814 5814 5815 5816 5817 5818 5819 5819 5820 5821 5821 5822 5822 5823 5823 5823 5823 5823 5824 5824 5824 5824 5823 5823 5823 5823 5823 5822 5821 5820 5819
5673 5677 5680 5685 5689 5691 5693 5694 5694 5698 5701 5702 5708 5717 5717 5712 5713 5717 5716 5714 5716 5717 5722 5729 5732 5737 5742 5751 5766 5773 5776 5780 5777 5776 5780 5783 5787 5792 5794 5796 5796 5796 5796 5795 5796 5797 5798 5801 5801 5803 5804 5805 5806 5807 5808 5809 5810 5811 5812 5813 5814 5814 5815 5816 5817 5818 5818 5818 5819 5819 5819 5819 5819 5819 5819 5819 5819 5819 5819 5819 5819 5818 5817 5816 5815 5814
5669 5672 5674 5679 5682 5683 5684 5685 5686 5693 5697 5699 5704 5707 5704 5706 5710 5712 5711 5712 5713 5713 5716 5722 5724 5726 5738 5753 5763 5767 5771 5772 5770 5772 5772 5773 5777 5781 5785 5789 5790 5791 5791 5790 5790 5791 5793 5795 5796 5797 5798 5799 5801 5802 5803 5804 5805 5806 5807 5808 5809 5810 5811 5812 5812 5813 5814 5814 5814 5814 5815 5815 5815 5815 5815 5815 5815 5815 5815 5815 5814 5813 5812 5811 5811 5810
5662 5665 5668 5673 5675 5675 5674 5677 5684 5692 5694 5694 5697 5698 5700 5705 5706 5707 5708 5708 5708 5707 5709 5713 5713 5720 5740 5753 5755 5759 5762 5762 5763 5765 5766 5766 5768 5771 5776 5780 5782 5784 5784 5783 5784 5786 5788 5790 5791 5792 5793 5794 5796 5796 5798 5799 5800 5802 5802 5803 5804 5805 5806 5807 5807 5808 5808 5808 5809 5810 5810 5811 5810 5810 5810 5811 5811 5811 5811 5810 5809 5809 5808 5807 5806 5805
5657 5660 5664 5667 5668 5669 5670 5677 5684 5686 5686 5689 5693 5694 5698 5703 5702 5701 5701 5702 5704 5703 5704 5708 5706 5716 5739 5746 5745 5752 5755 5755 5757 5758 5760 5761 5760 5763 5768 5771 5775 5778 5778 5778 5779 5781 5783 5784 5785 5786 5787 5788 5790 5790 5792 5793 5794 5796 5796 5797 5798 5799 5800 5800 5801 5801 5802 5803 5804 5804 5805 5805 5805 5806 5806 5806 5806 5806 5806 5805 5804 5804 5803 5802 5801 5800
5655 5656 5658 5659 5663 5666 5668 5672 5676 5677 5680 5683 5685 5687 5691 5694 5694 5695 5695 5698 5701 5698 5701 5704 5697 5709 5736 5741 5739 5746 5748 5749 5752 5752 5754 5755 5753 5756 5760 5763 5767 5770 5771 5772 5773 5775 5777 5778 5779 5780 5781 5781 5782 5784 5785 5786 5788 5789 5790 5791 5792 5793 5793 5794 5795 5795 5796 5797 5798 5799 5799 5800 5800 5801 5801 5801 5801 5801 5801 5800 5799 5799 5798 5797 5796 5794
5645 5646 5649 5653 5659 5662 5664 5666 5668 5671 5673 5674 5676 5680 5683 5685 5688 5691 5691 5694 5694 5691 5697 5698 5689 5704 5731 5736 5736 5740 5741 5744 5746 5745 5746 5747 5748 5750 5751 5755 5759 5760 5762 5764 5765 5768 5769 5770 5772 5772 5773 5774 5775 5776 5778 5779 5781 5782 5783 5784 5785 5786 5787 5788 5789 5790 5791 5792 5792 5793 5794 5794 5795 5795 5795 5795 5795 5796 5795 5795 5794 5793 5793 5792 5790 5789
5638 5640 5644 5648 5650 5653 5655 5656 5658 5663 5665 5667 5672 5676 5678 5680 5684 5685 5685 5687 5685 5683 5691 5690 5684 5703 5727 5730 5730 5733 5733 5737 5739 5737 5738 5740 5742 5744 5744 5746 5750 5752 5754 5755 5756 5760 5761 5762 5765 5765 5766 5767 5768 5769 5771 5772 5774 5775 5776 5778 5779 5780 5781 5782 5783 5784 5785 5786 5786 5787 5787 5788 5788 5789 5790 5790 5790 5790 5790 5789 5789 5788 5787 5786 5785 5784
5632 5633 5637 5639 5639 5642 5647 5650 5656 5662 5665 5665 5668 5670 5672 5674 5677 5679 5680 5681 5678 5679 5686 5684 5683 5702 5719 5721 5723 5725 5725 5729 5730 5729 5730 5731 5733 5736 5738 5740 5742 5744 5747 5747 5748 5752 5754 5755 5756 5757 5759 5759 5760 5761 5762 5764 5766 5767 5769 5770 5772 5773 5774 5775 5777 5778 5779 5779 5780 5781 5781 5782 5783 5783 5783 5784 5784 5784 5784 5783 5783 5782 5781 5780 5779 5778
5622 5623 5628 5631 5632 5637 5646 5653 5658 5659 5657 5657 5661 5665 5667 5669 5673 5675 5673 5672 5675 5678 5679 5679 5684 5697 5707 5713 5718 5719 5717 5719 5722 5722 5724 5725 5726 5728 5731 5734 5735 5737 5740 5741 5741 5743 5745 5748 5748 5749 5750 5750 5751 5752 5754 5756 5758 5758 5760 5762 5764 5766 5767 5768 5770 5771 5771 5772 5774 5775 5775 5776 5776 5777 5777 5778 5778 5778 5777 5777 5777 5776 5776 5775 5774 5773
5614 5615 5621 5626 5628 5635 5644 5649 5649 5646 5645 5649 5654 5658 5660 5663 5666 5666 5663 5667 5675 5672 5669 5677 5684 5687 5696 5708 5713 5711 5709 5711 5715 5719 5721 5722 5722 5723 5724 5726 5728 5731 5734 5735 5735 5735 5736 5739 5740 5740 5740 5740 5742 5744 5746 5748 5749 5750 5752 5753 5756 5758 5760 5761 5763 5764 5764 5766 5768 5768 5769 5769 5770 5770 5771 5771 5771 5771 5771 5771 5771 5770 5770 5769 5768 5767
5607 5610 5618 5622 5623 5631 5638 5640 5638 5636 5638 5642 5645 5649 5653 5655 5655 5655 5656 5664 5668 5662 5664 5675 5678 5676 5688 5703 5706 5704 5705 5707 5710 5714 5717 5718 5718 5717 5716 5717 5720 5725 5727 5728 5728 5728 5728 5729 5729 5730 5731 5732 5734 5736 5738 5739 5740 5742 5744 5746 5748 5750 5751 5753 5755 5756 5758 5760 5761 5762 5762 5763 5764 5764 5765 5765 5765 5765 5764 5765 5764 5764 5763 5762 5761 5760
5602 5606 5614 5616 5616 5623 5629 5631 5630 5629 5630 5633 5637 5642 5646 5647 5647 5648 5652 5658 5659 5655 5658 5668 5668 5670 5685 5697 5699 5700 5702 5703 5705 5708 5710 5712 5711 5708 5708 5709 5712 5717 5720 5720 5721 5720 5718 5718 5719 5721 5722 5724 5726 5727 5729 5730 5732 5734 5736 5738 5740 5741 5743 5744 5747 5749 5751 5753 5754 5755 5755 5756 5757 5757 5758 5757 5757 5758 5758 5758 5757 5757 5756 5755 5755 5754
5597 5601 5607 5609 5609 5613 5621 5624 5623 5623 5624 5626 5629 5634 5637 5638 5639 5641 5645 5651 5652 5650 5655 5663 5663 5668 5683 5693 5693 5694 5697 5698 5699 5700 5701 5703 5702 5701 5702 5704 5706 5709 5711 5712 5711 5710 5709 5709 5711 5712 5713 5715 5718 5719 5721 5723 5724 5725 5727 5729 5730 5732 5735 5737 5740 5742 5744 5746 5746 5747 5748 5749 5749 5750 5750 5750 5750 5750 5751 5751 5750 5750 5749 5749 5748 5748
5592 5595 5601 5603 5600 5604 5615 5618 5616 5619 5619 5616 5618 5624 5628 5630 5633 5636 5641 5646 5648 5649 5654 5656 5655 5664 5682 5688 5685 5687 5691 5692 5693 5693 5692 5693 5694 5695 5697 5700 5702 5703 5703 5702 5702 5701 5700 5701 5702 5704 5706 5708 5709 5711 5714 5715 5715 5716 5718 5720 5721 5724 5727 5730 5733 5735 5737 5738 5738 5739 5740 5741 5741 5742 5742 5742 5743 5743 5744 5744 5743 5743 5743 5742 5742 5741
5587 5590 5595 5596 5593 5599 5610 5612 5611 5613 5606 5598 5606 5618 5624 5628 5631 5634 5637 5642 5645 5647 5647 5647 5651 5665 5677 5676 5674 5682 5688 5686 5685 5686 5685 5685 5687 5689 5692 5696 5696 5695 5693 5692 5692 5693 5693 5693 5694 5696 5699 5700 5701 5703 5705 5705 5706 5709 5712 5713 5715 5718 5721 5723 5726 5727 5729 5730 5730 5731 5732 5732 5733 5734 5734 5735 5736 5736 5737 5736 5736 5736 5735 5735 5735 5734
5582 5584 5588 5590 5588 5594 5604 5606 5604 5599 5587 5586 5607 5623 5626 5628 5630 5630 5631 5637 5640 5640 5638 5641 5647 5657 5663 5665 5670 5679 5683 5680 5678 5678 5678 5679 5681 5683 5685 5688 5686 5684 5683 5682 5683 5685 5686 5687 5687 5688 5690 5693 5693 5694 5694 5695 5698 5702 5705 5706 5709 5712 5715 5717 5718 5720 5721 5721 5721 5722 5723 5724 5725 5725 5726 5727 5728 5729 5729 5729 5728 5728 5728 5728 5727 5727
5576 5578 5581 5582 5582 5587 5596 5597 5589 5580 5579 5592 5612 5622 5622 5622 5623 5621 5621 5625 5629 5629 5630 5635 5641 5650 5658 5663 5667 5671 5674 5674 5671 5670 5672 5674 5675 5675 5676 5677 5677 5675 5675 5675 5675 5678 5680 5680 5679 5679 5681 5684 5684 5685 5686 5689 5692 5694 5695 5698 5702 5705 5708 5709 5710 5712 5713 5713 5713 5714 5714 5716 5717 5717 5718 5719 5720 5720 5721 5720 5720 5720 5720 5720 5720 5720
5571 5573 5574 5576 5577 5580 5585 5584 5576 5574 5583 5596 5607 5613 5614 5613 5613 5611 5610 5615 5622 5625 5627 5631 5637 5645 5650 5654 5659 5663 5666 5664 5661 5664 5670 5670 5668 5668 5668 5669 5668 5665 5665 5667 5667 5668 5670 5670 5671 5672 5672 5674 5677 5679 5682 5684 5683 5684 5688 5691 5695 5698 5700 5702 5703 5704 5704 5704 5704 5705 5706 5708 5709 5709 5710 5711 5712 5712 5712 5712 5712 5712 5712 5712 5712 5713
5565 5567 5569 5570 5570 5572 5575 5575 5573 5575 5581 5589 5597 5603 5605 5605 5607 5607 5604 5609 5619 5622 5621 5622 5628 5634 5638 5645 5653 5657 5655 5651 5652 5661 5668 5665 5661 5662 5661 5658 5655 5653 5655 5657 5658 5660 5662 5663 5663 5664 5665 5668 5671 5674 5675 5676 5675 5677 5682 5686 5688 5690 5692 5694 5696 5697 5696 5696 5696 5697 5698 5700 5701 5702 5702 5703 5703 5704 5703 5703 5703 5703 5704 5704 5705 5705
5559 5560 5563 5563 5563 5566 5568 5568 5569 5569 5572 5583 5592 5597 5598 5599 5601 5601 5596 5598 5611 5617 5615 5616 5621 5625 5632 5639 5644 5645 5642 5639 5644 5657 5662 5657 5653 5652 5648 5645 5646 5647 5648 5651 5653 5654 5656 5655 5656 5657 5660 5663 5665 5665 5665 5664 5666 5670 5675 5679 5680 5681 5684 5687 5689 5688 5687 5688 5689 5689 5691 5692 5693 5694 5694 5694 5695 5695 5694 5695 5694 5695 5695 5696 5697 5698
5553 5553 5556 5556 5556 5560 5562 5562 5563 5563 5568 5581 5589 5589 5590 5591 5595 5596 5588 5587 5605 5616 5612 5610 5614 5618 5625 5631 5631 5630 5628 5628 5638 5653 5654 5646 5641 5639 5637 5639 5642 5642 5643 5646 5647 5647 5648 5648 5649 5651 5653 5655 5657 5656 5653 5652 5657 5664 5669 5671 5671 5672 5676 5679 5680 5678 5677 5679 5681 5682 5683 5684 5685 5686 5686 5686 5686 5686 5686 5686 5685 5686 5687 5689 5690 5691
5547 5547 5549 5549 5551 5556 5558 5556 5558 5561 5567 5577 5582 5581 5583 5585 5589 5589 5579 5581 5602 5612 5605 5604 5608 5611 5616 5619 5617 5618 5621 5624 5636 5646 5640 5631 5629 5629 5631 5635 5637 5635 5637 5639 5638 5639 5640 5642 5642 5644 5647 5648 5648 5647 5644 5644 5649 5656 5661 5662 5663 5666 5670 5670 5668 5667 5669 5671 5673 5674 5675 5676 5676 5677 5677 5677 5677 5677 5677 5677 5677 5678 5679 5681 5682 5683
5539 5541 5542 5545 5548 5552 5551 5551 5553 5558 5565 5573 5575 5575 5577 5578 5579 5578 5575 5583 5599 5603 5598 5599 5601 5601 5605 5607 5607 5613 5619 5621 5626 5629 5624 5621 5623 5622 5623 5627 5628 5628 5630 5630 5630 5631 5632 5633 5635 5638 5640 5641 5640 5639 5637 5638 5643 5649 5652 5653 5656 5660 5662 5658 5657 5659 5661 5663 5665 5665 5666 5667 5667 5667 5668 5668 5668 5668 5668 5669 5669 5670 5672 5673 5674 5675
5533 5535 5536 5539 5543 5545 5547 5547 5547 5552 5563 5570 5569 5567 5568 5568 5571 5574 5578 5584 5590 5592 5593 5593 5591 5592 5598 5600 5601 5607 5610 5609 5612 5613 5611 5611 5613 5612 5614 5618 5620 5621 5622 5623 5624 5624 5624 5626 5629 5631 5633 5634 5632 5632 5632 5631 5635 5641 5643 5645 5650 5652 5649 5647 5650 5653 5654 5654 5657 5657 5657 5658 5658 5659 5659 5659 5659 5659 5660 5660 5661 5663 5664 5665 5666 5667
5528 5529 5528 5533 5538 5539 5541 5540 5541 5551 5564 5567 5562 5559 5559 5562 5570 5576 5577 5578 5582 5585 5585 5583 5583 5587 5590 5591 5593 5597 5597 5598 5599 5599 5598 5599 5602 5604 5606 5610 5613 5615 5616 5617 5618 5617 5617 5619 5622 5623 5626 5627 5626 5626 5625 5625 5628 5633 5634 5638 5643 5641 5637 5639 5643 5644 5645 5647 5649 5649 5650 5650 5650 5650 5651 5651 5651 5651 5651 5652 5653 5655 5656 5657 5658 5660
5521 5522 5524 5528 5532 5532 5531 5535 5542 5553 5560 5557 5553 5555 5557 5561 5569 5571 5569 5573 5578 5579 5578 5577 5578 5580 5581 5581 5582 5583 5584 5586 5587 5587 5587 5589 5593 5596 5599 5603 5608 5609 5610 5610 5610 5609 5608 5611 5614 5616 5618 5619 5619 5618 5618 5618 5621 5624 5627 5631 5632 5629 5628 5632 5634 5635 5637 5639 5640 5641 5642 5641 5641 5642 5643 5643 5643 5643 5643 5644 5645 5647 5649 5650 5651 5652
5516 5519 5521 5523 5524 5524 5526 5533 5542 5548 5550 5548 5550 5554 5555 5557 5562 5562 5563 5568 5571 5571 5570 5569 5569 5570 5571 5572 5571 5572 5574 5575 5576 5577 5579 5581 5586 5590 5592 5595 5599 5600 5601 5601 5601 5600 5599 5601 5606 5608 5610 5611 5611 5610 5610 5611 5612 5616 5620 5622 5620 5618 5620 5623 5624 5626 5629 5631 5631 5633 5633 5633 5634 5635 5635 5636 5636 5635 5635 5636 5637 5639 5641 5642 5644 5645
5511 5513 5514 5515 5516 5517 5522 5530 5538 5543 5546 5547 5548 5550 5550 5551 5554 5556 5557 5559 5562 5562 5561 5560 5561 5562 5563 5563 5563 5564 5565 5566 5567 5569 5571 5574 5579 5582 5583 5585 5588 5589 5590 5591 5591 5590 5589 5591 5596 5599 5601 5603 5603 5602 5602 5603 5604 5608 5612 5612 5610 5610 5612 5614 5616 5619 5621 5622 5623 5624 5624 5625 5627 5627 5628 5628 5628 5627 5628 5628 5630 5632 5633 5635 5636 5638
5504 5504 5506 5509 5510 5511 5519 5530 5536 5540 5542 5541 5540 5542 5545 5546 5548 5549 5548 5550 5552 5552 5552 5553 5554 5555 5554 5555 5555 5556 5557 5559 5560 5563 5565 5566 5569 5572 5574 5576 5577 5577 5578 5580 5581 5580 5580 5583 5587 5590 5592 5595 5596 5594 5594 5596 5598 5601 5603 5604 5603 5603 5604 5606 5608 5611 5613 5614 5615 5615 5616 5618 5619 5619 5620 5620 5620 5620 5620 5621 5623 5624 5626 5627 5628 5629
5498 5497 5500 5504 5506 5509 5517 5527 5532 5532 5533 5534 5534 5537 5540 5540 5539 5539 5539 5540 5542 5543 5545 5546 5546 5545 5546 5548 5549 5550 5552 5554 5554 5556 5557 5558 5560 5564 5566 5566 5566 5567 5568 5570 5570 5570 5571 5574 5578 5580 5582 5586 5588 5587 5586 5589 5592 5593 5594 5595 5595 5595 5597 5599 5600 5602 5604 5605 5606 5607 5608 5610 5610 5611 5611 5611 5612 5613 5613 5613 5615 5616 5618 5619 5620 5620
5491 5492 5496 5500 5502 5504 5512 5523 5526 5523 5524 5528 5530 5530 5531 5531 5529 5529 5531 5533 5535 5537 5538 5537 5536 5537 5540 5543 5544 5544 5545 5547 5548 5549 5549 5550 5553 5556 5558 5558 5557 5558 5559 5561 5561 5561 5563 5566 5568 5569 5571 5575 5577 5577 5578 5582 5584 5585 5586 5587 5587 5588 5589 5591 5592 5594 5596 5597 5598 5599 5600 5601 5602 5603 5603 5603 5604 5604 5605 5605 5606 5608 5609 5610 5611 5612
5485 5489 5493 5494 5495 5499 5510 5519 5518 5511 5513 5521 5523 5519 5519 5520 5520 5521 5524 5526 5527 5529 5529 5528 5529 5531 5533 5536 5537 5535 5535 5539 5542 5542 5540 5542 5545 5548 5549 5550 5549 5549 5551 5552 5552 5553 5555 5557 5559 5559 5561 5565 5567 5567 5569 5574 5576 5576 5577 5578 5579 5580 5582 5583 5584 5586 5588 5589 5590 5591 5591 5592 5593 5594 5595 5595 5596 5596 5597 5598 5598 5600 5601 5602 5603 5604
5481 5485 5488 5486 5488 5497 5508 5509 5502 5498 5505 5514 5514 5510 5511 5514 5513 5514 5517 5518 5519 5521 5522 5522 5522 5523 5523 5525 5526 5525 5526 5529 5532 5532 5532 5534 5537 5539 5541 5541 5540 5540 5542 5543 5544 5545 5547 5548 5549 5550 5552 5555 5557 5557 5560 5565 5568 5568 5569 5569 5571 5572 5573 5575 5577 5579 5580 5581 5581 5582 5583 5583 5584 5585 5586 5586 5587 5588 5589 5590 5591 5592 5593 5594 5595 5596